CW9849 Weather Reports


time (UTC)temp
C
wind
direction
speed
KPH
gust
KPH
rain 1hr
cm
rain 24hr
cm
rain mn
cm
humidity
%
barometer
mb
20260502220059 11 89 3.2 4.8 0.00 0.05 0.05 88 1012.8
20260502214551 11 142 1.6 6.4 0.00 0.05 0.05 88 1012.8
20260502213051 11 110 1.6 6.4 0.00 0.05 0.05 88 1012.8
20260502211549 11 157 4.8 8.0 0.00 0.05 0.05 88 1013.0
20260502210050 11 137 4.8 9.7 0.00 0.05 0.05 88 1013.1
20260502204648 11 135 4.8 8.0 0.00 0.05 0.05 88 1013.1
20260502203107 11 113 1.6 4.8 0.00 0.05 0.05 87 1012.9
20260502201552 11 139 1.6 4.8 0.00 0.05 0.05 87 1012.9
20260502200045 11 124 1.6 4.8 0.03 0.05 0.05 87 1012.7
20260502194544 11 135 1.6 4.8 0.03 0.05 0.05 87 1012.6
20260502193057 11 145 3.2 4.8 0.03 0.05 0.05 87 1012.5
20260502191542 11 89 3.2 6.4 0.03 0.05 0.05 87 1012.5
20260502190045 11 113 3.2 8.0 0.00 0.03 0.03 87 1012.5
20260502184549 11 105 3.2 8.0 0.00 0.03 0.03 87 1012.5
20260502183039 12 117 3.2 9.7 0.00 0.03 0.03 87 1012.6
20260502181543 12 154 4.8 9.7 0.00 0.03 0.03 86 1012.7
20260502163030 12 124 8.0 14.5 0.00 0.03 0.03 87 1013.2
20260502161532 12 162 6.4 16.1 0.00 0.03 0.03 86 1013.5
20260502151523 12 123 9.7 17.7 0.00 0.03 0.03 86 1013.9
20260502123008 13 115 3.2 11.3 0.00 0.03 0.03 89 1014.8
20260502121608 13 102 8.0 14.5 0.00 0.03 0.03 89 1014.9
20260502114502 12 102 6.4 14.5 0.00 0.03 0.03 90 1015.4
20260502113127 12 105 4.8 12.9 0.00 0.03 0.03 90 1015.5
20260502111604 12 115 8.0 16.1 0.00 0.03 0.03 90 1015.6
20260502110057 12 102 8.0 14.5 0.00 0.03 0.03 90 1015.7
20260502104606 12 108 4.8 12.9 0.00 0.03 0.03 90 1016.2
20260502103055 12 102 4.8 11.3 0.00 0.03 0.03 90 1016.2
20260502101605 12 155 4.8 11.3 0.00 0.03 0.03 90 1016.3
20260502071526 11 170 8.0 16.1 0.03 0.03 0.03 90 1017.3
20260502070038 11 166 9.7 19.3 0.03 0.03 0.03 90 1017.3
20260502064525 11 164 9.7 17.7 0.00 0.00 0.00 90 1017.5
20260502063029 11 154 9.7 16.1 0.00 0.00 0.00 90 1017.5
20260502061520 11 141 8.0 16.1 0.00 0.00 0.00 90 1017.5
20260502060033 11 165 9.7 14.5 0.00 0.00 0.00 90 1017.5
20260502054531 11 155 6.4 14.5 0.00 0.00 0.00 90 1017.4
20260502053016 11 142 8.0 17.7 0.00 0.00 0.00 90 1017.5
20260502051514 11 147 8.0 12.9 0.00 0.00 0.00 90 1017.6
20260502050019 11 165 8.0 14.5 0.00 0.00 0.00 90 1017.6
20260502044516 11 150 6.4 16.1 0.00 0.03 0.00 90 1017.7
20260502043009 11 156 11.3 17.7 0.00 0.03 0.00 90 1017.8
20260502041520 11 133 8.0 17.7 0.00 0.03 0.00 90 1017.8
20260502040006 11 152 9.7 16.1 0.00 0.03 0.00 90 1017.9
20260502034504 11 150 8.0 16.1 0.00 0.03 0.00 90 1018.2
20260502033005 11 155 4.8 12.9 0.00 0.03 0.00 90 1018.3
20260502031602 11 144 9.7 16.1 0.00 0.03 0.00 90 1018.5
20260502030118 11 155 9.7 19.3 0.00 0.03 0.00 89 1018.8
20260502024605 11 164 8.0 16.1 0.00 0.03 0.00 89 1018.9
20260502023128 11 155 6.4 9.7 0.00 0.03 0.00 89 1019.0
20260502021553 11 132 6.4 11.3 0.00 0.03 0.00 89 1019.1
20260502020052 11 197 8.0 14.5 0.00 0.03 0.00 89 1019.3
20260502014603 11 168 6.4 16.1 0.00 0.03 0.00 89 1019.4
20260502013055 11 163 8.0 14.5 0.00 0.03 0.00 89 1019.5
20260502011603 11 166 6.4 9.7 0.00 0.03 0.00 89 1019.5
20260502010044 11 141 4.8 9.7 0.00 0.03 0.00 89 1019.7
20260502004542 11 140 4.8 12.9 0.00 0.03 0.00 89 1020.0
20260502003040 11 152 8.0 12.9 0.00 0.03 0.00 89 1020.5
20260502001542 11 143 4.8 12.9 0.00 0.03 0.00 88 1020.5
20260502000053 11 140 6.4 11.3 0.00 0.03 0.00 88 1020.7
20260501234536 11 164 8.0 14.5 0.00 0.03 0.00 88 1020.5
20260501233034 11 154 8.0 14.5 0.00 0.03 0.00 88 1020.6
20260501231530 11 189 6.4 12.9 0.00 0.03 0.00 88 1020.7
20260501230106 11 215 9.7 16.1 0.00 0.03 0.00 88 1020.9
20260501224528 11 173 11.3 19.3 0.00 0.03 0.03 88 1021.0
20260501223027 11 174 14.5 20.9 0.00 0.03 0.03 88 1021.1
20260501221526 11 196 8.0 12.9 0.00 0.03 0.03 87 1021.0